Theta_e
283 283 285 284 285 286 283 283 280 280 281 285 287 288 289 290 292 291 292 292 291 290 290 290 289 290 289 289 288 287 286 285 285 284 284 283 283 282 281 281 281 280 280 280
277 283 284 282 284 286 286 286 284 283 282 287 288 288 289 291 291 292 292 293 292 292 291 291 291 291 290 289 288 287 286 285 284 283 282 281 281 281 280 280 279 279 279 279
271 280 281 275 280 284 285 287 287 283 288 290 289 290 290 290 292 293 294 294 293 293 293 293 293 292 291 291 288 287 285 283 283 282 281 281 281 280 280 279 279 278 278 278
273 275 271 281 284 288 287 287 289 289 289 291 293 294 292 293 293 293 294 294 295 295 294 294 292 292 292 289 287 285 284 283 283 282 281 280 280 280 279 279 279 278 278 278
275 269 277 281 283 283 284 285 290 289 292 292 291 290 291 294 295 297 297 297 297 296 296 294 292 291 289 287 285 284 284 284 283 282 281 280 280 279 278 278 278 278 279 278
267 270 270 280 283 287 287 280 289 290 291 291 290 287 291 294 294 295 296 295 294 292 291 292 291 289 288 286 284 285 285 284 283 282 281 280 280 278 277 277 279 279 279 278
279 269 276 282 283 286 278 282 282 285 288 288 289 291 292 292 292 292 291 292 291 288 290 290 286 287 287 284 285 287 281 281 281 280 280 280 278 276 276 276 277 275 276 275
275 272 273 284 284 282 285 282 281 283 285 287 288 287 288 289 288 288 289 287 287 288 284 279 282 286 284 284 283 279 279 279 278 277 278 278 277 274 275 275 274 273 272 271
282 281 286 284 285 286 285 283 281 282 285 286 285 285 285 285 285 285 286 284 279 281 280 276 276 279 282 279 276 274 274 273 271 274 277 277 276 274 273 274 274 273 274 273
281 282 285 284 284 284 284 282 282 285 286 285 285 285 285 284 283 282 278 278 275 277 276 276 272 275 275 275 273 273 272 273 273 274 273 273 276 276 276 275 274 274 274 274
281 280 281 286 286 285 283 281 281 284 284 286 286 284 284 283 281 279 277 274 272 273 272 273 269 270 269 271 273 273 273 272 273 274 274 274 275 276 277 276 277 275 275 275
281 284 282 287 285 287 284 283 283 283 281 279 280 280 278 277 275 275 274 272 272 271 270 271 268 270 268 267 270 271 272 272 272 271 270 271 272 272 280 281 281 283 282 278
283 284 284 284 281 280 282 281 280 279 279 279 276 276 275 275 273 271 269 269 270 271 268 267 267 269 268 266 269 270 272 271 271 271 270 270 270 272 273 273 283 283 284 284
284 283 285 281 281 274 275 274 274 272 270 273 273 270 269 270 268 267 269 268 266 266 266 265 265 270 267 263 266 268 266 269 270 271 271 269 271 272 270 271 275 278 283 283
285 284 284 279 273 272 270 271 274 273 269 269 266 268 269 268 268 267 263 262 262 261 264 263 265 270 265 261 263 265 266 266 266 267 269 270 269 268 272 275 277 277 278 281
280 277 277 280 274 271 269 269 273 270 267 264 266 266 263 261 260 259 259 259 266 266 265 262 264 267 265 260 262 262 262 265 265 266 264 266 267 270 272 276 275 276 276 277
276 275 275 277 277 272 271 268 271 271 267 267 263 260 259 259 259 261 261 258 258 261 263 261 265 265 264 261 261 263 261 261 265 263 265 267 270 272 274 276 275 275 275 274
273 275 276 281 278 274 270 267 266 265 264 263 258 256 256 259 262 259 259 256 258 260 260 260 259 260 259 258 258 259 260 260 260 264 265 268 272 275 276 276 275 274 269 269
271 272 273 274 274 273 269 264 262 259 258 257 259 259 257 257 256 257 253 256 257 259 263 257 266 260 259 260 260 259 260 260 261 262 264 267 268 275 274 274 273 270 265 268
269 269 270 267 266 263 262 257 258 261 255 254 255 256 257 256 253 253 251 256 259 261 258 258 256 257 257 256 262 259 259 261 262 262 263 266 268 270 270 270 270 267 267 268
269 268 266 267 264 257 256 256 259 258 254 255 257 256 255 254 252 251 256 258 259 255 256 257 255 258 256 258 258 258 259 262 265 265 266 268 268 267 267 268 269 267 267 267
266 264 261 262 263 260 258 257 258 254 254 253 251 250 252 254 253 253 254 257 258 258 256 258 258 258 259 261 257 257 259 261 264 263 265 266 266 267 267 267 268 269 267 267
262 260 259 261 264 261 256 254 252 253 255 254 253 252 253 254 253 256 258 256 255 257 257 258 258 261 265 258 257 257 258 260 262 263 265 265 267 267 267 267 267 268 268 267
259 260 259 257 256 257 259 255 254 252 250 250 250 250 253 257 256 252 253 256 258 258 258 258 261 266 263 256 255 256 257 259 261 262 264 266 266 266 266 267 267 267 267 267
255 252 254 257 258 254 251 250 252 253 254 254 254 253 252 252 255 256 255 256 258 257 257 258 263 262 255 255 255 256 257 258 259 263 264 265 266 266 266 267 267 267 267 267
255 257 254 252 253 252 251 252 253 251 251 253 253 252 252 252 252 253 254 255 254 256 256 256 256 256 255 255 255 256 257 259 260 262 263 264 265 265 266 266 266 267 267 267
254 254 254 255 254 251 251 252 253 253 251 250 251 253 252 254 254 255 255 256 255 255 255 255 256 256 256 256 256 257 257 258 260 261 262 263 264 264 265 265 266 267 267 267
Wind_Speed
1 4 6 7 15 20 16 11 10 7 11 9 10 12 10 8 6 7 8 8 9 9 8 8 8 8 8 8 8 8 8 7 8 7 6 6 6 6 6 6 5 5 5 4
2 3 2 3 11 17 21 13 10 4 9 6 6 4 6 10 8 10 10 11 11 10 10 12 12 11 10 10 10 9 9 10 7 7 7 7 6 6 6 6 6 6 6 6
4 3 3 7 10 13 9 14 16 19 18 6 5 8 8 8 11 12 11 13 13 15 14 12 13 12 13 13 8 10 9 7 8 7 8 7 7 7 7 7 6 7 6 6
3 2 6 4 2 11 17 10 19 13 7 14 17 16 9 9 11 12 11 10 11 9 9 10 8 11 8 8 9 9 8 9 8 9 9 8 8 8 6 5 8 6 6 6
5 4 5 4 6 8 11 15 16 17 18 12 3 2 7 8 9 14 15 13 12 12 11 9 10 8 9 8 7 8 10 11 10 10 9 10 10 9 6 6 6 5 5 7
3 6 10 6 2 4 5 8 8 16 20 16 8 9 11 8 7 9 8 7 8 9 6 9 10 10 9 8 8 11 10 11 8 9 10 11 10 10 4 3 5 5 6 6
4 3 8 6 3 2 7 7 3 2 7 9 10 6 4 4 3 4 6 9 6 6 9 10 5 8 9 7 12 11 6 6 7 8 10 8 7 4 5 4 4 5 6 5
4 1 9 7 4 8 5 1 1 2 2 5 3 4 3 4 4 5 6 4 3 6 3 3 4 7 6 9 3 4 6 6 7 7 5 6 8 5 5 6 6 6 4 2
8 8 3 7 4 5 5 3 1 2 3 3 6 4 5 5 6 5 5 4 4 3 5 4 3 3 7 3 4 4 4 4 4 6 6 7 8 7 5 6 6 6 6 6
3 5 7 6 4 2 4 3 3 3 4 4 4 6 5 5 4 4 4 4 3 5 6 3 2 1 3 5 4 5 5 6 6 7 6 5 5 6 7 7 7 6 7 7
6 6 6 9 7 4 3 3 3 4 4 6 6 4 5 4 4 4 3 3 3 4 3 1 1 4 3 4 6 5 4 5 5 5 7 6 6 7 7 6 9 8 9 8
5 5 3 8 5 7 9 7 8 7 5 1 5 7 6 5 1 3 4 3 4 3 2 3 3 5 4 2 3 4 4 3 2 2 2 2 3 3 12 13 16 18 15 11
6 5 6 9 5 7 4 4 0 4 3 6 2 4 4 5 2 3 4 3 3 2 3 3 4 5 4 4 5 6 6 5 4 4 4 4 4 5 6 6 18 18 20 20
2 5 1 2 5 4 3 3 5 6 4 5 3 4 4 4 2 4 2 1 2 2 3 4 4 6 4 3 5 6 5 6 5 5 5 4 6 6 4 5 6 8 18 17
10 6 1 7 1 2 1 2 7 7 3 4 5 5 4 4 2 2 4 4 3 2 3 3 6 8 4 3 3 5 3 2 3 3 4 6 5 4 5 6 7 7 4 11
5 3 4 6 4 2 1 3 7 4 3 2 4 4 2 2 1 2 4 3 3 3 6 4 6 6 5 2 5 4 4 4 4 3 3 3 4 5 6 7 7 7 7 8
7 3 4 5 8 4 2 2 4 5 5 4 4 2 4 4 2 4 4 4 3 6 6 4 6 6 5 4 4 3 2 2 5 3 4 4 5 6 6 7 7 7 8 6
4 3 4 4 8 7 4 3 4 5 4 3 3 3 3 3 1 3 5 4 5 5 3 3 3 4 4 4 4 3 2 2 2 3 2 4 5 5 6 6 7 7 4 4
5 8 7 9 7 8 7 5 3 4 4 4 4 4 3 2 3 5 3 4 4 4 4 4 6 4 4 5 3 2 1 2 3 3 3 3 2 4 5 5 6 5 3 5
8 6 6 8 6 4 6 2 3 4 1 4 3 3 1 2 2 4 2 4 5 5 3 5 4 4 4 4 4 1 2 3 3 3 2 3 3 4 5 6 5 4 5 6
9 7 8 6 5 4 4 3 4 3 0 2 3 3 3 4 3 4 2 3 4 4 4 5 3 4 2 4 3 2 3 3 3 3 4 5 4 4 5 5 6 5 6 6
5 7 6 4 4 5 4 4 4 2 2 1 1 2 1 3 4 4 4 3 4 6 3 3 4 5 4 5 2 3 3 3 3 2 4 4 4 5 6 6 7 6 6 6
6 4 5 5 5 6 4 4 2 2 2 3 4 4 3 3 2 3 4 3 3 5 3 4 6 7 8 2 2 3 3 4 4 4 4 4 5 6 6 6 6 6 6 6
4 4 4 4 5 3 6 3 4 5 4 3 2 1 2 4 4 1 3 6 7 6 5 5 6 9 6 2 3 3 4 4 4 3 4 6 5 6 6 7 7 7 7 8
5 5 4 6 7 4 4 3 4 4 4 5 5 4 3 2 2 3 4 4 6 5 4 6 9 9 3 3 4 4 4 3 3 4 5 6 6 6 7 7 8 8 8 8
5 5 4 4 4 3 2 3 3 2 3 4 3 2 3 2 2 3 3 4 4 5 4 4 4 4 4 4 4 4 4 4 4 5 6 7 7 7 7 8 8 8 8 8
5 4 3 4 4 3 2 2 2 1 2 1 2 3 3 3 4 4 4 4 3 3 3 4 4 4 4 4 4 4 4 4 6 5 5 6 6 7 7 7 8 8 8 7
Wind_Direction
222 223 164 172 191 202 208 200 195 201 202 234 213 212 205 200 195 193 198 194 191 193 197 192 183 188 191 193 188 181 179 176 188 183 173 161 159 163 159 163 169 168 153 151
350 53 101 238 215 209 213 217 245 282 252 242 257 225 170 209 191 204 199 205 197 196 194 198 193 194 191 195 195 178 186 193 175 174 170 169 168 172 170 170 169 165 178 180
240 351 72 301 210 201 209 210 205 225 227 230 238 229 225 203 202 208 204 202 196 200 201 197 195 187 196 198 169 188 189 178 181 176 178 177 168 173 180 180 176 187 189 180
141 45 249 255 323 196 202 213 223 241 220 218 230 238 223 207 191 207 206 205 208 200 201 197 187 190 177 165 183 185 187 189 186 182 180 175 178 185 177 176 193 185 184 185
158 207 300 291 203 165 174 244 221 229 237 231 226 222 258 216 202 207 203 202 200 195 200 181 185 175 171 181 171 176 201 201 193 186 179 178 187 187 184 184 191 186 179 184
126 164 211 238 236 157 117 290 234 211 228 229 141 232 243 194 197 211 195 177 190 192 172 168 198 173 169 182 176 208 203 201 181 180 182 190 185 181 172 176 190 182 186 182
164 233 284 243 220 173 111 234 324 252 226 167 196 224 200 149 155 190 198 197 154 162 182 201 146 147 185 164 206 214 148 163 178 181 185 180 160 153 161 172 159 185 189 175
109 118 267 158 78 181 205 230 230 5 28 188 180 138 141 120 130 134 118 80 121 161 149 40 101 149 172 196 197 141 152 175 181 172 157 151 169 166 163 166 179 194 176 180
184 202 243 225 186 179 167 171 119 81 44 129 134 152 135 117 109 105 93 79 21 104 110 36 47 134 183 223 142 137 144 158 146 154 168 168 166 172 164 177 185 193 194 199
39 270 248 250 264 191 221 155 148 113 100 133 138 142 94 75 70 72 32 35 35 68 63 29 337 196 185 183 163 144 164 178 175 173 172 168 174 183 182 187 192 194 198 203
275 293 306 280 219 189 168 130 122 119 117 130 124 100 102 95 81 76 69 28 42 85 105 258 257 248 235 204 163 172 178 176 186 186 187 182 203 193 199 210 198 194 208 197
218 204 211 298 354 170 185 191 184 152 129 44 122 135 110 98 52 76 70 31 43 30 58 314 308 297 311 231 167 155 201 198 190 178 172 165 181 241 241 231 224 227 222 202
199 191 183 268 262 285 203 225 108 98 38 122 55 118 110 131 95 77 75 70 52 326 298 312 312 290 270 215 182 197 207 190 191 185 181 177 183 201 231 251 238 236 235 230
272 141 189 193 260 296 247 118 102 95 59 61 90 53 77 99 89 76 74 277 302 308 316 297 287 278 274 233 204 220 207 200 189 195 200 189 206 211 192 188 213 230 231 232
204 238 104 121 200 271 304 106 98 101 96 77 39 95 92 104 92 352 323 329 335 348 313 333 328 303 327 332 264 252 228 222 201 199 198 201 190 181 205 217 227 232 205 232
164 120 150 166 152 292 99 69 113 132 119 97 96 68 47 74 68 338 329 358 40 317 297 303 289 277 307 287 260 257 241 228 200 207 200 201 196 193 209 224 222 229 224 221
122 174 156 231 160 187 228 80 119 137 119 107 124 79 28 358 24 12 331 329 291 271 264 242 270 302 295 277 245 262 255 236 210 195 201 199 201 205 214 221 223 226 226 211
106 86 62 131 148 139 125 87 100 116 118 148 127 116 115 97 202 285 287 306 301 301 288 280 291 310 310 287 247 236 219 230 212 216 191 204 218 214 219 232 239 231 226 220
95 97 90 89 100 110 125 136 128 132 123 157 163 172 175 203 230 246 298 330 335 349 292 333 328 344 315 308 248 232 220 246 246 233 208 226 248 237 233 234 233 224 190 208
97 91 92 95 97 99 124 107 124 113 145 163 140 99 63 259 265 298 269 253 235 224 316 329 340 327 308 312 330 256 233 230 234 240 222 224 229 234 233 229 225 205 205 213
113 113 107 112 110 78 83 155 143 105 22 116 131 169 217 273 235 218 15 24 302 355 337 328 324 301 337 328 325 294 255 254 236 231 230 237 236 229 229 230 231 212 217 216
134 108 128 137 118 100 46 57 79 94 106 113 140 152 194 339 3 338 228 198 312 335 331 319 314 316 309 309 298 283 275 256 255 241 247 242 237 241 238 233 235 234 220 218
98 108 113 138 122 111 109 64 61 115 85 38 22 13 20 268 225 61 13 291 309 307 301 301 294 293 300 305 290 268 262 253 252 246 244 236 241 241 246 243 241 236 234 227
92 90 99 122 148 120 74 7 38 34 36 2 8 341 15 6 358 253 287 304 313 320 309 301 311 314 312 294 278 261 252 248 246 250 258 260 252 249 246 246 246 243 242 237
125 133 113 95 79 68 68 15 45 19 14 17 16 18 22 285 182 298 322 302 304 321 304 307 323 324 311 294 279 264 252 243 249 271 271 264 259 252 253 252 250 248 244 239
91 95 94 88 121 119 93 61 79 340 26 6 322 305 309 285 271 275 288 295 303 315 314 312 310 307 297 291 282 270 262 262 265 267 266 265 264 262 258 255 254 252 250 249
79 99 78 58 34 45 71 99 90 300 268 174 250 284 304 321 336 340 329 321 309 304 302 308 309 311 312 308 301 285 267 257 255 264 267 271 271 269 266 261 258 257 254 248